Погода в Дулуте

США     46°47′40″N   92°05′37″W
темп.,
°C
ветер,
м/с
пор.,
м/с
влажн.,
%
обл.,
%
осадки,
мм/ч
давл.,
гПа
погр.,
м
16 октября, сб
сб1601:00+7зсз5107770 0.3 1012929
04:00+6з5107786 0.0 1012488
07:00+5з511743 0.0 1013401
10:00+8зсз611620 0.0 1014561
13:00+13зсз69443 0.0 10131053
16:00+14зсз59422 0.0 10131197
19:00+11з47540 0.0 1015143
22:00+9з38610 0.0 1016189
17 октября, вс
вс1701:00+8з410630 0.0 1016274
04:00+7з410651 0.0 1017253
07:00+7з38670 0.0 1018213
10:00+10з25543 0.0 1018300
13:00+15з35415 0.0 1017573
16:00+17з35400 0.0 1015699
19:00+12зюз22590 0.0 101614
22:00+11зюз22660 0.0 101617
18 октября, пн
пн1801:00+10юз22690 0.0 101621
04:00+9юз12680 0.0 101646
07:00+8ююв11690 0.0 101631
10:00+11ю12590 0.0 1016161
13:00+16ююв14510 0.0 1014347
16:00+15всв34583 0.0 1013390
19:00+11св33740 0.0 101342
22:00+10св22780 0.0 101339
19 октября, вт
вт1901:00+10св11796 0.0 101334
04:00+10в118013 0.0 101217
07:00+9вюв0180100 0.0 101212
10:00+12ююз1269100 0.0 1012158
13:00+16юз13550 0.0 1011448
16:00+16всв11575 0.0 1010210
19:00+12всв1173100 0.0 101210
22:00+13св1173100 0.0 101311
20 октября, ср
ср2001:00+12св2275100 0.0 101321
04:00+12св81480100 0.0 1014426
07:00+10всв91389100 0.0 1016697
10:00+9всв101387100 0.1 1017787
13:00+9всв101484100 0.1 1017716
16:00+8всв91284100 0.1 1015704
19:00+8св81282100 0.5 1015775
22:00+8св91273100 0.4 1016962